SCP
0 0 0 0 0 1 0 0 0 0 0 0 0 0 0 1 1 2 1 1 1 1 1 1 1 2 1 1 1 1 1 0 0 1 1 0 0 0 0 0 0 0 0 0
0 0 0 0 1 1 1 0 0 0 0 0 0 0 0 0 1 2 2 1 1 1 1 1 1 1 1 1 1 0 0 0 0 0 0 0 0 0 0 0 0 0 0 0
0 0 0 0 1 1 1 1 0 0 0 0 0 0 0 0 1 1 2 1 1 1 1 1 1 1 1 1 1 0 0 0 0 0 0 0 0 0 0 0 0 0 0 0
0 0 0 0 0 1 1 1 1 0 0 0 0 0 0 0 0 1 1 1 1 1 1 1 1 1 1 1 1 1 0 0 0 0 0 0 0 0 0 0 0 0 0 0
0 0 0 0 0 0 0 0 0 0 0 0 0 0 0 0 0 0 1 1 1 1 1 1 1 1 1 1 1 1 0 0 0 0 0 0 0 0 0 0 0 0 0 0
0 0 0 0 0 0 0 0 0 0 0 0 0 0 0 0 0 0 0 0 1 1 1 1 1 1 1 1 1 1 1 0 0 0 0 0 0 0 0 0 0 0 0 0
0 0 0 0 0 0 0 0 0 0 0 0 0 0 1 1 1 0 0 0 0 1 1 0 1 1 1 2 1 1 1 1 1 0 0 0 0 0 0 0 0 0 0 0
0 0 0 0 0 0 0 0 0 0 0 0 0 0 1 1 1 1 0 0 0 0 0 0 0 1 1 2 2 2 1 1 1 1 1 0 0 0 0 0 0 0 0 0
0 0 0 0 0 0 0 0 0 0 0 0 0 1 1 1 1 1 1 0 0 0 0 0 0 1 1 1 1 1 1 1 1 1 1 1 1 0 0 0 0 0 0 0
0 0 0 0 0 0 0 0 0 0 0 0 0 1 1 1 1 1 1 0 0 0 0 0 0 0 0 1 1 1 1 1 1 1 1 1 1 1 0 0 0 0 0 0
0 0 0 0 0 0 0 0 0 0 0 0 1 1 1 1 1 1 0 0 0 0 0 0 0 0 0 0 0 1 1 1 1 1 1 1 1 1 0 0 0 0 0 0
0 0 0 0 0 0 0 0 0 0 0 0 0 0 0 0 0 0 0 0 0 0 0 0 0 0 0 0 0 1 1 1 1 1 1 1 1 0 0 0 0 0 0 0
0 0 0 0 0 0 0 0 0 0 0 0 0 0 0 0 0 0 0 0 0 0 0 0 1 1 1 1 1 1 1 1 1 1 0 0 0 0 0 0 0 0 0 0
0 0 0 0 0 0 0 0 0 0 0 0 0 0 0 0 0 0 0 0 0 0 0 1 1 1 1 1 1 1 1 0 0 0 0 0 0 0 0 0 0 0 0 0
0 0 0 0 0 0 0 0 0 0 0 0 0 0 0 0 0 1 1 0 0 0 0 1 1 1 1 1 1 1 0 0 0 0 0 0 0 0 0 0 0 0 0 0
0 0 0 0 0 0 0 0 0 0 0 0 0 0 0 0 0 0 0 0 0 0 0 0 1 0 0 1 1 0 0 0 0 0 0 0 0 0 0 0 0 0 0 0
0 0 0 0 0 0 0 0 0 0 0 0 0 0 0 0 0 0 0 0 0 0 0 0 0 0 0 0 0 0 0 0 0 0 0 0 0 0 0 0 0 0 0 0
0 0 0 0 0 0 0 0 0 0 0 0 0 0 0 0 0 0 0 0 0 0 0 0 0 0 0 0 0 0 0 0 0 0 0 0 0 0 0 0 0 0 0 0
0 0 0 0 0 0 0 0 0 0 0 0 0 0 0 0 0 0 0 0 0 0 0 0 0 0 0 0 0 0 0 0 0 0 0 0 0 0 0 0 0 0 0 0
0 0 0 0 0 0 0 0 0 0 0 0 0 0 0 0 0 1 1 1 0 0 0 0 0 0 0 0 0 0 0 0 0 0 0 0 0 0 0 0 0 0 0 0
0 0 0 0 0 0 0 0 0 0 0 0 0 0 0 0 0 1 1 1 1 0 0 0 0 0 0 0 0 0 0 0 0 0 0 0 0 0 0 0 0 0 0 0
0 0 0 0 0 0 0 0 0 0 0 0 0 0 0 0 0 1 1 1 1 0 0 0 0 0 0 0 0 0 0 0 0 0 0 0 0 0 0 0 0 0 0 0
0 0 0 0 0 0 0 0 0 0 0 0 0 0 0 0 0 0 0 0 0 0 0 0 0 0 0 0 0 0 0 0 0 0 0 0 0 0 0 0 0 0 0 0
0 0 0 0 0 0 0 0 0 0 0 0 0 0 0 0 0 0 0 0 0 0 0 0 0 0 0 0 0 0 0 0 0 0 0 0 0 0 0 0 0 0 0 0
0 0 0 0 0 0 0 0 0 0 0 0 0 0 0 0 0 0 0 0 0 0 0 0 0 0 0 0 0 0 0 0 0 0 0 0 0 0 0 0 0 0 0 0
0 0 0 0 0 0 0 0 0 0 0 0 0 0 0 0 0 0 0 0 0 0 0 0 0 0 0 0 0 0 0 0 0 0 0 0 0 0 0 0 0 0 0 0
0 0 0 0 0 0 0 0 0 0 0 0 0 0 0 0 0 0 0 0 0 0 0 0 0 0 0 0 0 0 0 0 0 0 0 0 0 0 0 0 0 0 0 0
Wind_Speed
3 3 3 3 5 6 6 8 8 8 8 9 5 6 5 5 6 7 9 10 13 13 12 11 11 11 11 11 11 11 11 11 10 9 8 8 8 8 8 8 8 7 7 6
1 2 2 3 6 7 7 5 6 5 8 6 4 3 3 4 7 8 10 12 13 13 13 14 14 13 12 12 12 12 12 11 10 9 9 9 9 8 8 7 7 7 7 7
2 2 1 5 6 6 4 4 5 7 7 4 4 4 4 5 7 9 10 11 12 14 14 14 14 14 14 13 12 12 12 11 11 11 11 10 10 9 9 8 7 7 7 7
1 1 5 6 1 1 3 3 3 4 5 5 6 7 5 4 6 7 8 9 11 11 12 12 11 12 12 11 12 13 12 12 11 11 11 10 9 10 9 7 7 7 7 7
3 2 5 4 1 0 2 4 2 3 6 7 6 3 2 1 2 5 7 8 10 11 11 11 12 12 12 12 12 13 13 13 13 13 12 11 11 11 8 7 7 7 6 8
3 3 5 4 2 1 1 4 2 3 5 5 3 2 4 4 3 3 4 5 6 7 7 9 11 12 13 13 13 15 15 14 13 12 13 13 12 10 7 7 8 8 7 7
3 3 6 4 3 1 3 5 3 2 3 2 1 4 5 7 5 3 3 3 5 7 8 9 10 12 13 13 15 15 13 11 11 12 12 11 10 8 7 7 7 7 7 7
3 3 6 2 1 1 4 3 3 3 3 3 3 4 4 4 4 3 2 1 4 6 7 6 9 11 12 13 13 10 10 11 11 12 11 10 10 9 8 9 8 7 6 6
6 6 4 2 3 3 2 3 3 3 4 3 4 4 5 4 3 3 2 0 2 5 6 6 7 10 12 11 9 10 11 11 10 10 9 9 10 10 8 8 7 7 6 7
3 5 4 4 3 3 2 3 3 4 4 3 3 4 4 4 4 3 2 1 2 4 5 6 6 7 8 6 8 10 11 10 9 10 9 8 7 8 8 8 8 7 7 7
3 5 4 3 2 2 2 2 2 2 2 1 1 3 3 4 4 3 3 2 3 4 4 4 5 5 5 6 8 9 9 8 8 8 8 8 7 6 7 7 8 8 7 6
4 4 2 3 4 3 2 3 3 1 3 3 3 2 3 3 3 3 4 3 3 4 4 4 4 4 4 5 8 9 7 7 6 6 6 6 6 4 3 4 6 7 7 6
3 2 1 2 4 4 3 2 3 3 2 3 4 3 4 4 4 4 5 4 4 4 4 5 5 4 4 4 6 7 7 7 6 6 6 6 6 6 4 2 2 3 5 7
2 1 2 2 3 5 4 4 5 5 5 4 4 4 5 5 6 6 6 5 5 6 7 7 7 6 4 6 7 6 6 6 5 5 5 5 5 5 4 4 3 2 2 5
2 2 2 2 4 5 5 5 7 7 6 7 6 7 7 7 7 7 6 6 8 9 9 8 8 6 5 6 7 7 6 5 4 4 4 4 4 4 3 4 3 2 1 2
3 3 4 5 5 6 7 7 7 7 7 7 7 7 7 7 8 8 8 8 9 9 8 8 7 5 5 6 7 6 5 7 6 4 4 4 3 3 3 3 2 2 2 2
2 3 3 4 5 6 6 6 6 6 7 7 6 6 7 8 9 9 8 8 9 9 8 7 6 5 6 6 6 5 5 5 7 5 4 3 3 3 3 2 2 2 2 2
2 2 2 3 4 5 5 5 6 6 6 5 6 7 8 9 8 7 6 7 10 10 9 6 6 7 7 7 6 5 5 5 5 4 4 3 3 2 2 2 2 2 1 1
5 5 5 6 5 5 5 5 5 5 5 6 7 8 8 8 7 6 6 9 9 8 6 6 9 9 8 8 7 5 5 5 5 4 4 4 3 3 2 2 1 1 0 0
6 7 7 6 6 6 6 5 6 6 5 6 8 8 8 7 6 7 8 8 5 3 3 5 7 7 6 6 7 5 5 5 5 4 3 3 3 2 2 1 1 0 0 1
7 7 8 7 7 7 6 5 6 7 6 7 8 8 8 7 6 6 6 6 5 5 6 7 6 5 5 5 6 5 5 5 5 4 3 3 3 2 2 1 1 1 1 1
6 6 7 7 8 7 6 6 7 8 8 8 8 7 7 7 7 7 6 4 3 5 5 5 5 6 7 7 5 5 5 5 4 3 3 3 2 2 2 2 1 1 1 2
6 7 7 7 7 7 7 7 7 7 7 7 6 6 6 5 4 4 4 4 3 6 5 5 6 9 9 6 5 5 5 4 4 3 3 3 2 2 2 2 2 2 2 2
7 8 7 7 7 8 8 7 7 6 7 7 6 6 5 5 5 4 3 4 7 7 6 6 8 8 7 5 4 4 4 4 4 3 3 3 3 3 2 2 3 3 3 3
7 7 7 8 7 6 5 6 7 7 7 6 7 7 5 4 3 3 4 5 7 7 5 6 8 8 5 4 4 4 4 3 3 3 3 3 3 3 2 2 3 3 3 3
6 5 5 6 5 4 4 5 5 4 5 5 5 5 5 4 5 4 4 5 7 6 5 4 4 5 4 4 4 4 3 3 3 3 3 3 3 3 3 3 4 3 3 3
6 6 5 6 5 5 4 5 5 5 4 4 4 5 5 5 5 5 6 5 5 5 5 4 4 4 4 4 4 3 3 3 3 3 3 2 2 2 2 3 3 3 3 4
Wind_Direction
216 227 193 216 213 188 188 190 194 229 237 260 262 246 237 206 185 183 185 186 185 185 184 181 179 179 179 178 172 169 168 173 180 178 171 166 167 168 165 167 174 173 171 176
303 264 230 249 245 223 220 211 223 251 266 264 275 254 241 206 188 190 192 195 192 188 185 185 184 182 178 178 176 172 176 182 177 170 170 172 173 169 167 172 172 171 179 182
245 303 360 255 238 220 220 211 196 227 251 309 311 293 256 224 204 202 198 194 192 191 190 190 189 184 182 181 174 175 181 180 176 174 177 179 177 172 178 181 177 180 188 189
163 91 228 245 289 230 222 241 227 256 282 290 278 278 258 224 205 209 203 198 196 193 192 189 185 181 178 172 174 179 182 182 179 179 182 178 176 182 187 181 183 189 194 197
135 195 273 291 326 116 219 268 245 265 291 300 305 322 315 247 208 219 213 208 202 195 188 181 180 177 170 173 177 181 186 187 185 183 182 180 186 189 186 182 189 193 195 198
139 178 235 253 278 279 154 273 262 266 292 313 358 360 293 319 320 277 239 217 205 186 170 173 179 169 171 179 181 189 192 191 186 184 184 187 191 188 181 184 194 195 203 205
165 218 261 276 305 18 173 257 308 295 296 318 271 244 285 313 318 307 273 224 184 170 171 181 175 168 177 183 194 197 189 182 180 184 188 188 185 179 178 185 188 195 205 211
153 198 255 291 28 184 233 282 300 295 286 280 277 292 306 318 318 325 326 214 171 167 174 172 168 173 182 194 196 183 174 176 182 185 187 187 180 181 181 183 190 200 206 217
188 215 244 241 230 262 246 270 285 287 287 283 300 313 315 322 327 325 324 173 174 172 165 161 170 177 189 196 179 169 171 179 181 181 184 180 182 184 181 185 195 204 206 218
262 267 270 279 274 278 247 246 273 278 280 282 298 314 327 339 347 345 351 79 117 140 149 160 174 184 191 179 166 166 174 179 176 178 181 180 181 183 185 189 197 203 207 217
270 283 310 321 305 288 296 295 294 298 303 314 345 353 355 359 359 1 15 43 100 129 147 158 162 169 166 156 157 162 168 171 172 176 174 176 179 184 190 198 196 197 206 205
233 251 232 279 304 319 345 329 322 358 28 16 26 17 22 27 18 24 35 48 82 101 120 134 144 148 140 147 153 153 156 161 163 164 164 167 168 164 171 181 186 195 204 201
240 271 230 287 342 358 7 6 25 50 60 36 29 32 41 43 35 39 40 50 79 95 97 96 97 97 104 122 133 142 149 154 153 157 158 162 165 168 169 156 149 184 200 202
236 111 29 16 18 12 23 42 61 61 57 54 51 53 58 56 52 49 43 45 66 77 79 83 82 73 77 104 115 120 123 127 133 143 148 156 162 168 170 174 182 203 213 209
30 89 116 55 44 34 38 61 65 58 53 52 56 61 64 64 58 51 47 56 70 71 69 74 75 65 68 96 107 111 114 118 120 120 128 135 142 150 158 167 172 179 179 195
21 53 71 69 59 50 49 56 60 54 51 52 54 57 61 66 65 60 54 57 70 69 66 69 65 54 69 86 94 96 100 107 114 117 118 123 131 140 147 157 168 182 197 209
80 68 72 70 68 66 55 56 62 61 58 57 56 63 68 70 67 64 59 58 67 66 63 66 63 57 66 80 91 96 99 101 101 104 107 119 126 133 141 151 166 187 214 202
89 100 106 104 97 89 71 63 65 64 65 69 68 69 71 72 72 65 60 64 65 56 45 44 57 65 62 66 78 83 86 88 91 94 95 99 108 118 124 135 155 177 217 205
71 77 78 80 82 81 75 65 59 62 64 72 74 71 70 70 70 66 63 64 61 52 25 29 51 63 62 60 69 76 82 85 85 84 89 93 92 93 104 121 144 167 185 244
63 71 75 75 73 77 76 68 65 65 64 78 82 77 70 64 64 65 66 63 48 34 24 45 56 58 58 60 65 72 77 79 79 78 79 84 87 83 83 88 89 65 327 292
63 70 76 76 71 65 67 74 79 76 67 70 77 78 73 64 58 59 65 56 18 25 48 55 58 55 56 60 63 66 69 71 70 69 70 70 67 60 51 44 36 11 332 316
61 69 73 77 76 64 54 65 78 81 75 72 72 73 71 64 60 58 53 49 24 39 52 52 53 58 62 65 66 67 68 70 68 67 65 64 62 54 38 27 17 1 348 339
60 63 65 68 73 68 58 56 61 70 72 70 70 72 73 64 54 64 48 17 30 47 51 49 56 63 66 66 66 67 68 68 67 66 64 59 55 49 36 27 21 12 5 358
58 58 57 58 68 69 59 48 50 57 62 59 54 57 66 63 46 40 50 40 44 50 50 45 53 59 61 61 64 66 67 67 66 66 65 62 58 50 41 32 23 13 7 1
62 60 58 59 61 61 60 60 59 56 59 55 47 43 45 57 68 48 44 46 46 52 51 44 47 51 54 60 64 64 62 61 62 65 62 56 48 38 29 22 14 358 349 345
62 60 55 54 56 57 59 63 61 51 57 57 43 36 40 44 53 50 44 43 46 50 50 44 45 51 55 57 58 56 54 52 52 48 43 38 31 23 10 0 353 345 338 334
56 57 58 53 44 45 56 63 63 53 51 61 52 35 39 44 46 46 45 41 41 44 44 42 44 48 50 50 47 41 38 38 38 37 37 34 25 14 1 350 341 336 332 327